sat.trackr.live / text

‹ back to catalog

STARLINK-31545

NORAD 59400 · 2024-064C

PAYLOAD ACTIVE UNKNOWN

§ Identity

Operator
Country
US
Launch date
2024-04-05
Launch site
AFETR
Launch vehicle
Mass (kg)
RCS (m²)

Purposes: comms

External: N2YO · Heavens-Above · Gunter

§ Orbital elements

Epoch: 2026-05-24T21:35:21.248736Z

Period
94.27 min
Inclination
43.0024°
Eccentricity
0.0001221
Mean motion
15.27584853 rev/d
Perigee alt
482.2 km
Apogee alt
483.9 km
Semi-major
6,861.2 km
B*
6.3561e-5
RAAN
345.5619°
Arg perigee
268.0351°
Mean anomaly
92.0360°
Rev number
12,088

§ Raw data

STARLINK-315451 59400U 24064C   26144.89955149  .00001488  00000+0  63561-4 0  99962 59400  43.0024 345.5619 0001221 268.0351  92.0360 15.27584853120884

JSON: /api/v1/satellites/59400 · /tle

For live sub-satellite position, see the globe view (requires WebGL).

§ Visibility from observer

Set your observer location to see the next 7 days of passes ≥ 10°. The values pass through the URL so the page stays shareable.

No JS? Fill the form by hand. The geolocation button needs JavaScript.